Regional Weather Roundup
Issued by NWS Sterling, VA

Home | Current Version | Previous Version | Graphics & Text | Print | Product List | Glossary On
Versions: 1 2 3 4 5 6 7 8 9 10 11 12 13 14 15 16 17 18 19 20 21 22 23 24 25 26 27 28 29 30 31 32 33 34 35 36 37 38 39 40 41 42 43 44 45 46 47 48 49 50
286
ASUS41 KLWX 211011
RWRLWX

REGIONAL WEATHER ROUNDUP
NATIONAL WEATHER SERVICE BALTIMORE MD/WASHINGTON DC
600 AM EDT MON AUG 21 2017

Note: "FAIR" indicates few or no clouds below 12,000 feet
with no significant weather and/or obstructions to visibility.
 TC=TEMPERATURE CELSIUS

 * =Non NWS site. Station does not report precipitation (e.g. rain,
    snow, etc.), thunder, or fog.

DCZ001-MDZ009-015-VAZ040>042-051-053>054-211100-
WASHINGTON METRO

CITY           SKY/WX    TMP DP  RH WIND       PRES   REMARKS
WASHINGTON NAT CLOUDY    76  72  87 SE3       30.20R
DULLES         MOCLDY    71  70  96 SE5       30.20S
ANDREWS AFB    PTCLDY    70  66  88 CALM      30.20R
FT BELVOIR     MOCLDY    71  69  95 CALM      30.20R
QUANTICO       CLOUDY    74  72  93 NW3       30.20R
COLLEGE PARK*  CLOUDY    69  66  90 CALM      30.20R
LEESBURG*      PTCLDY    70  70 100 CALM      30.21S
MANASSAS*      PTCLDY    69  68  96 CALM      30.20R
GAITHERSBURG*  MOCLDY    68  67  96 CALM      30.22R

$$

MDZ006>007-011-014-211100-
BALTIMORE METRO

CITY           SKY/WX    TMP DP  RH WIND       PRES   REMARKS
BWI AIRPORT    MOCLDY    70  68  93 CALM      30.20R
MD SCIENCE CTR   N/A     76  67  73 MISG      30.21R
MARTIN STATE   MOCLDY    70  70 100 CALM      30.21R
ANNAPOLIS      CLOUDY    75  74  96 CALM      30.20R
FORT MEADE*    CLOUDY    64  64 100 CALM      30.22R

$$

MDZ012-015-019>023-211100-
MARYLAND EASTERN SHORE

CITY           SKY/WX    TMP DP  RH WIND       PRES   REMARKS
OCEAN CITY     CLEAR     66  66 100 CALM      30.21R
SALISBURY      MOCLDY    65  65 100 CALM      30.20R
BAY BRIDGE AP* PTCLDY    73  68  83 CALM      30.20R
CAMBRIDGE*     PTCLDY    66  66 100 CALM      30.20S

$$

MDZ017>025-211100-
SOUTHERN MARYLAND

CITY           SKY/WX    TMP DP  RH WIND       PRES   REMARKS
PATUXENT RIVER PTCLDY    70  70 100 CALM      30.19R
ST INIGOES     PTCLDY    69  69 100 CALM      30.19R
LEONARDTOWN*   PTCLDY    68  68 100 CALM      30.21R

$$

MDZ003>005-211100-
NORTH CENTRAL MARYLAND

CITY           SKY/WX    TMP DP  RH WIND       PRES   REMARKS
FREDERICK*     NOT AVBL
HAGERSTOWN APT CLEAR     68  63  84 CALM      30.19S
WESTMINSTER*   MOCLDY    72  68  88 S5        30.22R

$$

MDZ501>502-211100-
WESTERN MARYLAND

CITY           SKY/WX    TMP DP  RH WIND       PRES   REMARKS
OAKLAND*       PTCLDY    64  61  88 S5        30.26R
CUMBERLAND*    CLOUDY    64  64 100 CALM      30.25R

$$

VAZ025>031-211100-
SHENANDOAH VALLEY

CITY           SKY/WX    TMP DP  RH WIND       PRES   REMARKS
WINCHESTER*    CLEAR     63  63 100 CALM      30.20R
FRONT ROYAL*   CLOUDY    68  68 100 CALM      30.19R VSB 1/2
LURAY*         CLOUDY    66  66 100 CALM      30.21S FOG
NEW MARKET*      N/A     65  64  96 CALM      30.20S
STAUNTON*      CLEAR     64  64  97 CALM      30.24F
WAYNESBORO*    CLEAR     66  66 100 CALM      30.24S

$$

WVZ021-048>050-054>055-211100-
EASTERN WEST VIRGINIA PANHANDLE

CITY           SKY/WX    TMP DP  RH WIND       PRES   REMARKS
MARTINSBURG    CLEAR     65  63  93 CALM      30.18S
PETERSBURG*    MOCLDY    67  66  99 CALM      30.22R FOG

$$

VAZ036>039-050-211100-
CENTRAL FOOTHILLS

CITY           SKY/WX    TMP DP  RH WIND       PRES   REMARKS
CHARLOTTESVILL CLEAR     71  69  93 CALM      30.20S
CULPEPER*        N/A     68  68 100 CALM      30.20S FOG
ORANGE*        PTCLDY    68  66  94 CALM      30.20S
GORDONSVILLE*  CLEAR     68  68 100 CALM      30.19F FOG
WARRENTON*     PTCLDY    69  66  89 SE6       30.19S

$$

VAZ055>057-211100-
NORTH AND CENTRAL PIEDMONT

CITY           SKY/WX    TMP DP  RH WIND       PRES   REMARKS
FREDERICKSBRG* PTCLDY    71  71 100 CALM      30.19R
STAFFORD*      PTCLDY    68  68 100 CALM      30.24R

$$

NCZ024-NYZ072-PAZ021-071-VAZ022-071-211100-
OTHER REGIONAL OBSERVATIONS

CITY           SKY/WX    TMP DP  RH WIND       PRES   REMARKS
NEW YORK CITY  CLEAR     72  63  73 CALM      30.21R
PHILADELPHIA   MOCLDY    69  64  84 CALM      30.21R
PITTSBURGH     PTCLDY    66  63  90 CALM      30.16S
ROANOKE        CLEAR     68  66  93 W3        30.24S
RICHMOND       MOCLDY    72  71  97 SE3       30.20R FOG
RALEIGH        PTCLDY    73  71  93 CALM      30.20R

$$

ANZ530>537-211100-
MARINE OBSERVATIONS

STATION/POSITION TIME  TEMP    WIND        PRES
                       AIR SEA DIR/SP/G
                 (UTC) (F)     (DEG/KT/KT) (MB)
THOMAS PT LIGHT  1000   77 80  140/  6/  7   N/A
BALT KEY BRIDGE  0942   75     250/  3/  3 1022.5R
COVE POINT       0942   76     200/  4/  4 1023.0R
LEWISETTA        0942   76 83  180/  3/  4 1022.2R
SOLOMONS ISLAND  0942   76 82   CALM  /  1   N/A
PINEY POINT      0942          180/  6/  7   N/A

$$





USA.gov is the U.S. government's official web portal to all federal, state and local government web resources and services.